Location: *
(46.3500°N, 10.9000°E)
Time: 02:56:32
(UTC+00:00)

BlueWalker 3 - Visible Passes

Search period start: 21 February 2024 00:00
Search period end: 02 March 2024 00:00
Orbit: 486 x 500 km, 53.2° (Epoch: 20 February)

Date Brightness Start Highest point End Pass type
(mag) Time Alt. Az. Time Alt. Az. Time Alt. Az.
21 Feb 2.9 18:18:05 10° W 18:21:40 40° NNW 18:23:33 23° NE visible
21 Feb 4.9 19:57:18 10° WNW 19:58:02 14° NW 19:58:02 14° NW visible
22 Feb 2.9 17:54:20 10° W 17:57:55 40° NNW 18:00:52 14° NE visible
22 Feb 4.2 19:33:34 10° WNW 19:35:21 21° NW 19:35:21 21° NW visible
23 Feb 2.8 17:30:34 10° W 17:34:10 41° NNW 17:37:46 10° NE visible
23 Feb 3.5 19:09:48 10° WNW 19:12:37 27° NNW 19:12:37 27° NNW visible
24 Feb 3.3 18:46:02 10° WNW 18:49:20 28° N 18:49:51 27° NNE visible
25 Feb 3.3 18:22:14 10° WNW 18:25:32 28° N 18:27:03 21° NE visible
25 Feb 4.8 20:00:46 10° NW 20:01:32 15° NW 20:01:32 15° NW visible
26 Feb 3.3 17:58:25 10° WNW 18:01:44 28° N 18:04:15 14° NE visible
26 Feb 4.0 19:36:58 10° NW 19:38:44 24° NW 19:38:44 24° NW visible
27 Feb 3.3 17:34:36 10° WNW 17:37:55 28° N 17:41:13 10° ENE visible
27 Feb 3.0 19:13:09 10° NW 19:15:56 38° NNW 19:15:56 38° NNW visible
28 Feb 2.4 18:49:19 10° NW 18:52:59 45° NNE 18:53:09 44° NNE visible
29 Feb 2.4 18:25:29 10° NW 18:29:07 44° NNE 18:30:23 32° ENE visible
29 Feb 4.7 20:03:50 10° WNW 20:04:52 17° WNW 20:04:52 17° WNW visible
01 Mar 2.5 18:01:37 10° NW 18:05:16 43° NNE 18:07:39 19° E visible
01 Mar 3.7 19:39:58 10° WNW 19:42:08 29° W 19:42:08 29° W visible
